When you browse on this site, cookies collect data to enhance your experience and personalize the content and advertising you see.
Visit our Privacy Policy to learn more. By continuing to use the site, you agree to this use of cookies and data.

Hourly Weather Agra

Today, 5 July, Sunday

Time Temperature Precipitation Wind Pressure Humidity
00:00 +39°C° 0.1 mm 5 mps 733 mmHg 46%
01:00 +37°C° 0.1 mm 5 mps 733 mmHg 49%
02:00 +37°C° 0.1 mm 5 mps 732 mmHg 52%
03:00 +36°C° 0 mm 4 mps 732 mmHg 54%
04:00 +36°C° 0 mm 4 mps 732 mmHg 55%
05:00 +34°C° 0 mm 3 mps 733 mmHg 65%
06:00 +34°C° 0 mm 3 mps 733 mmHg 62%
07:00 +35°C° 0 mm 4 mps 733 mmHg 59%
08:00 +36°C° 0 mm 4 mps 734 mmHg 57%
09:00 +37°C° 0 mm 4 mps 733 mmHg 51%
10:00 +39°C° 0 mm 3 mps 733 mmHg 45%
11:00 +40°C° 0 mm 2 mps 733 mmHg 39%
12:00 +42°C° 0 mm 3 mps 732 mmHg 36%
13:00 +43°C° 0 mm 3 mps 731 mmHg 33%
14:00 +44°C° 0 mm 3 mps 731 mmHg 30%
15:00 +44°C° 0 mm 3 mps 730 mmHg 30%
16:00 +44°C° 0 mm 3 mps 730 mmHg 30%
17:00 +44°C° 0 mm 3 mps 729 mmHg 29%
18:00 +43°C° 0 mm 3 mps 730 mmHg 32%
19:00 +42°C° 0 mm 4 mps 730 mmHg 34%
20:00 +41°C° 0 mm 4 mps 730 mmHg 37%
21:00 +41°C° 0.1 mm 4 mps 731 mmHg 40%
22:00 +40°C° 0.1 mm 4 mps 731 mmHg 43%
23:00 +39°C° 0.1 mm 5 mps 731 mmHg 46%

Tomorrow, 6 July, Monday

Time Temperature Precipitation Wind Pressure Humidity
00:00 +38°C° 0.4 mm 4 mps 731 mmHg 48%
01:00 +37°C° 0.4 mm 3 mps 731 mmHg 50%
02:00 +36°C° 0.4 mm 2 mps 731 mmHg 51%
03:00 +36°C° 0.6 mm 2 mps 731 mmHg 53%
04:00 +35°C° 0.6 mm 2 mps 731 mmHg 55%
05:00 +34°C° 0.6 mm 1 mps 731 mmHg 58%
06:00 +34°C° 0.2 mm 1 mps 732 mmHg 55%
07:00 +35°C° 0.2 mm 1 mps 732 mmHg 52%
08:00 +36°C° 0.2 mm 1 mps 733 mmHg 50%
09:00 +38°C° 0.1 mm 2 mps 733 mmHg 47%
10:00 +40°C° 0.1 mm 4 mps 733 mmHg 45%
11:00 +41°C° 0.1 mm 5 mps 732 mmHg 42%
12:00 +41°C° 0 mm 5 mps 732 mmHg 40%
13:00 +42°C° 0 mm 5 mps 731 mmHg 39%
14:00 +42°C° 0 mm 5 mps 731 mmHg 38%
15:00 +42°C° 0 mm 5 mps 730 mmHg 37%
16:00 +41°C° 0 mm 5 mps 730 mmHg 37%
17:00 +41°C° 0 mm 5 mps 730 mmHg 36%
18:00 +40°C° 0 mm 4 mps 730 mmHg 39%
19:00 +40°C° 0 mm 4 mps 731 mmHg 42%
20:00 +38°C° 0 mm 4 mps 732 mmHg 45%
21:00 +37°C° 0.2 mm 4 mps 732 mmHg 48%
22:00 +37°C° 0.2 mm 3 mps 732 mmHg 51%
23:00 +36°C° 0.2 mm 3 mps 733 mmHg 54%

Day after tomorrow, 7 July, Tuesday

Time Temperature Precipitation Wind Pressure Humidity
00:00 +36°C° 0.3 mm 4 mps 733 mmHg 57%
01:00 +35°C° 0.3 mm 4 mps 732 mmHg 61%
02:00 +34°C° 0.3 mm 4 mps 732 mmHg 64%
03:00 +34°C° 0.5 mm 4 mps 732 mmHg 65%
04:00 +34°C° 0.5 mm 3 mps 733 mmHg 66%
05:00 +32°C° 0.5 mm 2 mps 733 mmHg 67%
06:00 +34°C° 0.1 mm 2 mps 733 mmHg 64%
07:00 +35°C° 0.1 mm 2 mps 734 mmHg 61%
08:00 +36°C° 0.1 mm 2 mps 734 mmHg 58%
09:00 +37°C° 0 mm 2 mps 734 mmHg 53%
10:00 +38°C° 0 mm 3 mps 735 mmHg 47%
11:00 +41°C° 0 mm 4 mps 735 mmHg 42%
12:00 +41°C° 0 mm 4 mps 734 mmHg 41%
13:00 +42°C° 0 mm 4 mps 734 mmHg 39%
14:00 +42°C° 0 mm 3 mps 733 mmHg 38%
15:00 +41°C° 0.3 mm 4 mps 733 mmHg 42%
16:00 +40°C° 0.3 mm 5 mps 733 mmHg 46%
17:00 +38°C° 0.3 mm 6 mps 733 mmHg 50%
18:00 +37°C° 0.3 mm 5 mps 733 mmHg 53%
19:00 +36°C° 0.3 mm 5 mps 734 mmHg 56%
20:00 +35°C° 0.3 mm 4 mps 734 mmHg 59%
21:00 +35°C° 0.5 mm 4 mps 734 mmHg 61%
22:00 +34°C° 0.5 mm 4 mps 735 mmHg 62%
23:00 +34°C° 0.5 mm 3 mps 735 mmHg 63%

8 July, Wednesday

Time Temperature Precipitation Wind Pressure Humidity
00:00 +34°C° 1.5 mm 3 mps 734 mmHg 66%
01:00 +33°C° 1.5 mm 3 mps 734 mmHg 68%
02:00 +32°C° 1.5 mm 2 mps 733 mmHg 70%
03:00 +31°C° 1.4 mm 3 mps 733 mmHg 71%
04:00 +31°C° 1.4 mm 3 mps 734 mmHg 72%
05:00 +31°C° 1.4 mm 3 mps 734 mmHg 74%
06:00 +31°C° 0.2 mm 3 mps 734 mmHg 71%
07:00 +33°C° 0.2 mm 3 mps 734 mmHg 69%
08:00 +32°C° 0.2 mm 2 mps 735 mmHg 67%
09:00 +35°C° 0.7 mm 2 mps 735 mmHg 62%
10:00 +35°C° 0.7 mm 1 mps 735 mmHg 58%
11:00 +36°C° 0.7 mm 1 mps 735 mmHg 53%
12:00 +36°C° 0.5 mm 1 mps 734 mmHg 52%
13:00 +37°C° 0.5 mm 2 mps 733 mmHg 52%
14:00 +38°C° 0.5 mm 3 mps 733 mmHg 51%
15:00 +38°C° 0.5 mm 3 mps 733 mmHg 51%
16:00 +38°C° 0.5 mm 3 mps 732 mmHg 50%
17:00 +38°C° 0.5 mm 3 mps 732 mmHg 50%
18:00 +37°C° 0.3 mm 3 mps 732 mmHg 53%
19:00 +37°C° 0.3 mm 3 mps 732 mmHg 55%
20:00 +36°C° 0.3 mm 3 mps 733 mmHg 58%
21:00 +36°C° 0.5 mm 3 mps 733 mmHg 60%
22:00 +35°C° 0.5 mm 3 mps 733 mmHg 62%
23:00 +35°C° 0.5 mm 3 mps 733 mmHg 64%

9 July, Thursday

Time Temperature Precipitation Wind Pressure Humidity
00:00 +34°C° 0.9 mm 3 mps 732 mmHg 65%
01:00 +34°C° 0.9 mm 3 mps 732 mmHg 66%
02:00 +33°C° 0.9 mm 3 mps 732 mmHg 67%
03:00 +33°C° 0.1 mm 3 mps 731 mmHg 68%
04:00 +33°C° 0.1 mm 3 mps 731 mmHg 68%
05:00 +33°C° 0.1 mm 3 mps 731 mmHg 68%
06:00 +33°C° 0.6 mm 3 mps 732 mmHg 67%
07:00 +34°C° 0.6 mm 3 mps 732 mmHg 66%
08:00 +34°C° 0.6 mm 3 mps 732 mmHg 64%
09:00 +36°C° 1.7 mm 3 mps 732 mmHg 60%
10:00 +37°C° 1.7 mm 3 mps 732 mmHg 56%
11:00 +38°C° 1.7 mm 3 mps 732 mmHg 51%
12:00 +38°C° 1.7 mm 3 mps 732 mmHg 50%
13:00 +39°C° 1.7 mm 3 mps 732 mmHg 50%
14:00 +39°C° 1.7 mm 3 mps 731 mmHg 49%
15:00 +37°C° 2.2 mm 4 mps 731 mmHg 57%
16:00 +35°C° 2.2 mm 6 mps 731 mmHg 64%
17:00 +33°C° 2.2 mm 7 mps 731 mmHg 72%
18:00 +33°C° 1.7 mm 7 mps 731 mmHg 75%
19:00 +32°C° 1.7 mm 6 mps 731 mmHg 77%
20:00 +30°C° 1.7 mm 6 mps 732 mmHg 80%
21:00 +30°C° 1.5 mm 5 mps 732 mmHg 80%
22:00 +30°C° 1.5 mm 5 mps 732 mmHg 79%
23:00 +30°C° 1.5 mm 5 mps 732 mmHg 79%

10 July, Friday

Time Temperature Precipitation Wind Pressure Humidity
00:00 +30°C° 1.2 mm 5 mps 732 mmHg 80%
01:00 +29°C° 1.2 mm 4 mps 731 mmHg 82%
02:00 +29°C° 1.2 mm 4 mps 731 mmHg 83%
03:00 +29°C° 0.6 mm 4 mps 731 mmHg 83%
04:00 +29°C° 0.6 mm 4 mps 731 mmHg 83%
05:00 +29°C° 0.6 mm 3 mps 731 mmHg 82%
06:00 +29°C° 0.3 mm 4 mps 731 mmHg 80%
07:00 +30°C° 0.3 mm 4 mps 732 mmHg 78%
08:00 +30°C° 0.3 mm 4 mps 732 mmHg 75%
09:00 +32°C° 0.3 mm 4 mps 732 mmHg 74%
10:00 +33°C° 0.3 mm 5 mps 732 mmHg 72%
11:00 +33°C° 0.3 mm 6 mps 732 mmHg 70%
12:00 +33°C° 0.7 mm 6 mps 732 mmHg 69%
13:00 +33°C° 0.7 mm 6 mps 732 mmHg 69%
14:00 +33°C° 0.7 mm 7 mps 731 mmHg 68%
15:00 +33°C° 0.1 mm 7 mps 731 mmHg 71%
16:00 +32°C° 0.1 mm 7 mps 731 mmHg 75%
17:00 +32°C° 0.1 mm 7 mps 730 mmHg 78%
18:00 +32°C° 0 mm 6 mps 730 mmHg 78%
19:00 +32°C° 0 mm 5 mps 730 mmHg 77%
20:00 +32°C° 0 mm 4 mps 730 mmHg 77%
21:00 +31°C° 0 mm 3 mps 731 mmHg 76%
22:00 +31°C° 0 mm 3 mps 731 mmHg 76%
23:00 +31°C° 0 mm 2 mps 731 mmHg 76%
Show more